Orbital Elements at Epoch 2459200.5 (2020-Dec-17.0) TDB
Reference: JPL 20 (heliocentric ecliptic J2000)
Element | Value | Uncertainty (1-sigma) | Units |
e | .05571080320125654 | 4.7773e-08 | |
a | 3.39232197066818 | 3.162e-08 | au |
q | 3.203332988964986 | 1.5814e-07 | au |
i | 5.928406497202291 | 5.3903e-06 | deg |
node | 35.33285353704212 | 5.0767e-05 | deg |
peri | 252.3527615475473 | 7.5116e-05 | deg |
M | 64.88135043121061 | 5.4836e-05 | deg |
tp | 2458789.197447764462 (2019-Nov-01.69744776) | 0.0003478 | TDB |
period | 2282.149151038115 6.25 | 3.1908e-05 8.736e-08 | d yr |
n | .1577460438272588 | 2.2055e-09 | deg/d |
Q | 3.581310952371374 | 3.3382e-08 | au |
|
| | Orbit Determination Parameters
Additional Information
|